Powrót do katalogu

SLS DEB

AktywnyLEO
NORAD 55905·DEBRIS·🇺🇸 United States

Wystrzelony Nov 16, 2022 z Cape Canaveral Space Force Station

Loading…

Następne Przeloty (najbliższe 24 godziny)

TLE

ŚwieżeSource: Space-Track

Epoka: Sep 14, 2026, 14:34 UTC

1 55905U 22156E   26257.60696838  .00114209  00000-0  61965-2 0  9994
2 55905  30.4672  25.8645 0824961  61.3568 306.7483 13.79476483166474

Śledź SLS DEB w czasie rzeczywistym z AllMySat

Download on the App Store